Content
SEND FEEDBACK

Daily
Averages
Monthly
Summary
Germany

FASSBURG, GERMANY


Home > Europe > Germany
Elevation: 245 feet     Latitude: 52 55N     Longitude: 010 11E

WEATHER
 
SELECT A DAY
Number of Records: 45,617;   Date Range: 2/20/97 - 12/24/14
 
SHARE

PRINT THIS DATA

[ ← Previous Day ]
WEATHER ALMANAC - JANUARY 31, 2013
[ Next Day → ]
[ °C ]   °F
Weather ElementAverageHighLow
Temperature43.2 °F44.6 °F (5:20 am)41 °F (3:20 pm)
Dewpoint36.1 °F39.2 °F (2:20 pm)33.8 °F (4:20 am)
Humidity76.3 %93 % (5:20 pm)66 % (5:20 am)
Barometer29.67 in29.77 in (7:20 am)29.56 in (5:20 pm)
Wind Speed18.9 mph26.5 mph (5:20 am)
Wind Gust48.3 mph (5:20 am)
Weather ElementAverage
Visibility6.2 mi
Wind DirectionWSW (253.5 °)

Weather ElementTotal
Precipitation---
Heating Degree Days22.2 (Base 65)
Averaged from 23 records on January 31, 2013
WEATHER CONDITIONS BREAKOUT
WIND DIRECTION BREAKOUT
WEATHER BY HOUR - JANUARY 31, 2013
[ °C ]   °F
Local TimeTemperatureDewpointHumidityBarometerVisibilityWind DirectionWind SpeedGust SpeedPrecipitationEventsConditions
1:20 AM42.8 °F37.4 °F81 %29.65 in6.2 miWest (270°)18.4 mph32.2 mphMostly Cloudy
2:20 AM42.8 °F35.6 °F76 %29.68 in6.2 miWest (260°)19.6 mph31.1 mphScattered Clouds
3:20 AM42.8 °F35.6 °F76 %29.71 in6.2 miWest (260°)17.3 mphMostly Cloudy
4:20 AM42.8 °F33.8 °F70 %29.71 in6.2 miWest (260°)21.9 mph38.0 mphMostly Cloudy
5:20 AM44.6 °F33.8 °F66 %29.74 in6.2 miWest (260°)26.5 mph48.3 mphMostly Cloudy
6:20 AM42.8 °F33.8 °F70 %29.74 in6.2 miWest (260°)20.7 mph32.2 mphMostly Cloudy
7:20 AM42.8 °F33.8 °F70 %29.77 in6.2 miWest (260°)20.7 mph34.5 mphMostly Cloudy
8:20 AM42.8 °F33.8 °F70 %29.77 in6.2 miWest (260°)19.6 mph35.7 mphMostly Cloudy
9:20 AM42.8 °F35.6 °F76 %29.77 in6.2 miWSW (250°)16.1 mphMostly Cloudy
10:20 AM42.8 °F35.6 °F76 %29.74 in6.2 miWSW (240°)16.1 mph28.8 mphMostly Cloudy
11:20 AM44.6 °F35.6 °F71 %29.74 in6.2 miWSW (240°)18.4 mphMostly Cloudy
12:20 PM44.6 °F37.4 °F76 %29.71 in6.2 miWSW (250°)15.0 mphMostly Cloudy
1:20 PM44.6 °F37.4 °F76 %29.65 in6.2 miWSW (240°)19.6 mphRainLight Rain
2:20 PM42.8 °F39.2 °F87 %29.62 in6.2 miWSW (240°)20.7 mph33.4 mphRainRain
3:20 PM41.0 °F37.4 °F87 %29.59 in6.2 miWSW (240°)18.4 mphMostly Cloudy
4:20 PM42.8 °F37.4 °F81 %29.59 in6.2 miWSW (240°)21.9 mphMostly Cloudy
5:20 PM41.0 °F39.2 °F93 %29.56 in6.2 miWSW (250°)15.0 mphMostly Cloudy
6:20 PM41.0 °F39.2 °F93 %29.56 in6.2 miWSW (250°)12.7 mphMostly Cloudy
7:20 PM42.8 °F39.2 °F87 %29.59 in6.2 miWest (260°)17.3 mph33.4 mphMostly Cloudy
8:20 PM44.6 °F35.6 °F71 %29.59 in6.2 miWest (260°)17.3 mphMostly Cloudy
9:20 PM44.6 °F35.6 °F71 %29.59 in6.2 miWest (260°)19.6 mph36.8 mphMostly Cloudy
10:20 PM44.6 °F33.8 °F66 %29.62 in6.2 miWest (260°)20.7 mph34.5 mphMostly Cloudy
11:20 PM44.6 °F33.8 °F66 %29.62 in6.2 miWest (260°)20.7 mph34.5 mphMostly Cloudy
Hourly data recorded from ETHS, located miles away from Fassburg, Germany







STORIES FROM OUR PARTNERS